Flag for U.S.A. Weather past 2 weeks in Memphis, Tennessee, U.S.A.

Now
77 °F

Sunny.


Feels Like: 79 °F
Forecast: 69 / 90 °F
Wind: 5 mph from Northeast

Location: Memphis International Airport

Current Time: Jul 22, 2014 at 8:47:34 AM

Latest Report: Jul 22, 2014 at 7:54 AM


Visibility: 10 mi

Pressure: 30.08 "Hg

Humidity: 69%

Dew point: 66 °F

Location of MemphisLocation

Historic Weather in Memphis — Graph

°F

Memphis temperature yesterday

Maximum temperature yesterday: 86 °F (at 3:54 PM)
Minimum temperature yesterday: 67 °F (at 3:54 AM)
Average temperature yesterday: 78 °F

Past Weeks' High & Low Weather Summary

 TemperatureHumidityPressure
High94 °F (Jul 14, 1:54 PM)94% (Jul 14, 11:54 PM)30.18 "Hg (Jul 14, 11:54 PM)
Low63 °F (Jul 16, 4:54 AM)39% (Jul 10, 2:54 PM)29.85 "Hg (Jul 14, 3:54 PM)
Average78 °F69%30.02 "Hg
* Reported Jul 7 6:54 AM — Jul 22 6:54 AM, Memphis, Weather by CustomWeather, © 2014

Note: Actual official high and low records may vary slightly from our data, if they occured in-between our weather recording intervals... More about our weather records

Advertising

Memphis weather history for previous 24 hours

 ConditionsComfort  
Time TempWeatherWind HumidityBarometerVisibility
6:54 AM
Jul 22
72 °FSunny.No wind81%30.08 "Hg9 mi
5:54 AM71 °FPassing clouds.No wind84%30.07 "Hg10 mi
4:54 AM72 °FClear.No wind81%30.06 "Hg10 mi
3:54 AM76 °FClear.5 mph72%30.05 "Hg10 mi
2:54 AM73 °FClear.3 mph79%30.05 "Hg10 mi
1:54 AM75 °FClear.No wind71%30.05 "Hg10 mi
12:54 AM76 °FClear.3 mph69%30.05 "Hg10 mi
11:54 PM
Jul 21
75 °FPassing clouds.No wind71%30.04 "Hg10 mi
10:54 PM77 °FPassing clouds.6 mph66%30.04 "Hg10 mi
9:54 PM77 °FPassing clouds.5 mph66%30.04 "Hg10 mi
8:54 PM78 °FPassing clouds.3 mph64%30.03 "Hg10 mi
7:54 PM81 °FScattered clouds.5 mph58%30.04 "Hg10 mi
6:54 PM83 °FPartly sunny.7 mph55%30.03 "Hg10 mi
5:54 PM85 °FPartly sunny.7 mph53%30.03 "Hg10 mi
4:54 PM86 °FScattered clouds.9 mph49%30.03 "Hg10 mi
3:54 PM86 °FScattered clouds.6 mph51%30.03 "Hg10 mi
2:54 PM85 °FScattered clouds.3 mph51%30.05 "Hg10 mi
1:54 PM84 °FScattered clouds.6 mph53%30.06 "Hg10 mi
12:54 PM84 °FScattered clouds.6 mph51%30.08 "Hg10 mi
11:54 AM83 °FScattered clouds.No wind53%30.09 "Hg10 mi
10:54 AM83 °FPassing clouds.7 mph55%30.10 "Hg10 mi
9:54 AM81 °FPassing clouds.5 mph60%30.09 "Hg10 mi
8:54 AM78 °FSunny.No wind69%30.09 "Hg10 mi
Weather by CustomWeather, © 2014

See weather overviewHow to use our weather pages